Hourly Data Report for November 13, 2019

All times are specified in Local Standard Time (LST). Add 1 hour to adjust for Daylight Saving Time where and when it is observed.

EUREKA CLIMATE
NUNAVUT
Current Station Operator: ECCC - MSC

79°59'21.000" N
85°56'02.000" W
10.00 m
2401199
71613
NEK

Download Data

Hourly Data (November 2019)
Hourly Data Report for November 13, 2019
TIME Temp Definition
°C
Dew Point Definition
°C
Rel Hum Definition
%
Wind Dir Definition
10's deg

Wind Spd Definition
km/h
Visibility Definition
km
Stn Press Definition
kPa
Hmdx Definition


Wind Chill Definition


Weather Definition


00:00 -36.8 -40.4 69 2 7   101.52   -45 LegendNANA
01:00 -35.6 -39.1 70 6 3   101.55   -39 LegendNANA
02:00 -36.4 -40.0 69 10 6   101.57   -44 LegendNANA
03:00 -36.2 -39.8 69 9 4   101.60   -41 LegendNANA
04:00 -36.6 -40.2 69 3 7   101.60   -45 LegendNANA
05:00 -36.1 -39.7 70 7 1   101.65   -37 LegendNANA
06:00 -36.6 -40.3 69 7 2   101.66   -39 LegendNANA
07:00 -35.9 -39.4 70 11 4   101.70   -41 LegendNANA
08:00 -36.3 -39.9 69 11 3   101.75   -40 LegendNANA
09:00 -36.0 -39.5 70 3 7   101.77   -44 LegendNANA
10:00 -36.3 -39.9 69 11 7   101.80   -45 LegendNANA
11:00 -36.2 -39.7 70 0 1   101.82   -37 LegendNANA
12:00 -35.7 -39.2 70 9 3   101.87   -40 LegendNANA
13:00 -36.5 -40.1 69 3 5   101.88   -43 LegendNANA
14:00 -35.6 -38.9 71 3 6   101.89   -43 LegendNANA
15:00 -35.8 -39.4 70 12 3   101.93   -40 LegendNANA
16:00 -36.3 -39.9 69 11 6   101.95   -44 LegendNANA
17:00 -36.4 -40.1 69   0   101.94     LegendNANA
18:00 -35.9 -39.4 70 11 2   101.93   -38 LegendNANA
19:00 -36.4 -40.0 69 11 2   101.93   -39 LegendNANA
20:00 -35.9 -39.4 70 7 2   101.90   -38 LegendNANA
21:00 -36.2 -39.8 69 9 5   101.90   -43 LegendNANA
22:00 -35.9 -39.4 70 6 3   101.86   -40 LegendNANA
23:00 -35.7 -39.2 70 12 3   101.84   -40 LegendNANA

Notes on Data Quality.

Legend

  • E = Estimated
  • M = Missing
  • NA = Not Available
Date modified: